User: anonymous   Login
Location: Belfast
(54.5830°N, 5.9330°W)
Time: 23:21:56
(UTC+01:00)
Language:

Coronas F rocket - Orbit

View from above orbital plane
View from above orbital plane
View from above satellite
View from above satellite

Ground track
Ground track

The orbit data is extracted from the following two-line orbital elements,

1 26874U 01032B   15184.44789358  .00012227  00000-0  11964-3 0  9998
2 26874 082.4680 300.1181 0012187 086.3451 273.9201 15.65851548780677
Epoch (UTC): 03 July 2015 10:44:58
Eccentricity: 0.0012187
inclination: 82.4680°
perigee height: 362 km
apogee height: 379 km
right ascension of ascending node: 300.1181°
argument of perigee: 86.3451°
revolutions per day: 15.65851548
mean anomaly at epoch: 273.9201°
orbit number at epoch: 78067

The dashed part of the orbit path shows where the satellite is in the earth's shadow,  

DLR